Location: Montney
(56.4501°N, 120.9265°W)
Time: 11:14:50
(UTC+00:00)

ISS - Visible Passes

Search period start: 17 May 2022 00:00
Search period end: 27 May 2022 00:00
Orbit: 415 x 422 km, 51.6° (Epoch: 17 May)

Date Brightness Start Highest point End Pass type
(mag) Time Alt. Az. Time Alt. Az. Time Alt. Az.
17 May -2.9 05:51:27 10° SW 05:54:25 30° SSE 05:57:23 10° ESE visible
17 May -3.2 07:27:40 10° WSW 07:30:46 35° S 07:32:08 24° SE visible
17 May -1.6 09:04:30 10° WSW 09:05:01 13° WSW 09:05:01 13° WSW visible
18 May -2.6 05:03:49 10° SW 05:06:38 25° SSE 05:09:28 10° ESE visible
18 May -3.2 06:39:49 10° WSW 06:42:56 36° S 06:45:32 13° ESE visible
18 May -2.3 08:16:28 10° WSW 08:18:25 22° SW 08:18:25 22° SW visible
19 May -3.1 05:51:57 10° WSW 05:55:04 35° S 05:58:10 10° ESE visible
19 May -2.8 07:28:27 10° WSW 07:31:23 28° SSW 07:31:52 27° S visible
20 May -3.0 06:40:25 10° WSW 06:43:28 32° S 06:45:16 19° SE visible
20 May -1.5 08:17:31 10° WSW 08:18:10 13° WSW 08:18:10 13° WSW visible
21 May -3.1 05:52:21 10° WSW 05:55:28 35° S 05:58:33 10° ESE visible
21 May -2.2 07:29:09 10° WSW 07:31:32 20° SSW 07:31:32 20° SSW visible
22 May -2.5 06:40:53 10° WSW 06:43:39 24° SSW 06:44:52 19° SSE visible
23 May -2.7 05:52:37 10° WSW 05:55:34 29° SSW 05:58:10 12° SE visible
23 May -1.5 07:30:14 10° WSW 07:31:04 12° SW 07:31:04 12° SW visible
24 May -1.9 06:41:22 10° WSW 06:43:30 16° SSW 06:44:19 15° SSW visible
25 May -2.1 05:52:47 10° WSW 05:55:20 20° SSW 05:57:33 12° SSE visible
